User: anonymous   Login
Location: Dumpton Point
(51.3500°N, 1.4433°E)
Time: 10:14:32
(UTC+00:00)
Language:

Cosmos 1408 - Orbit

View from above orbital plane
View from above orbital plane
View from above satellite
View from above satellite

Ground track
Ground track

The orbit data is extracted from the following two-line orbital elements,

1 13552U 82092A   21209.81825449  .00001526  00000-0  52830-4 0  9998
2 13552  82.5651 232.7903 0018715 133.0294 227.2517 15.28875929126118
Epoch (UTC): 28 July 2021 19:38:17
Eccentricity: 0.0018715
inclination: 82.5651°
perigee height: 466 km
apogee height: 492 km
right ascension of ascending node: 232.7903°
argument of perigee: 133.0294°
revolutions per day: 15.28875929
mean anomaly at epoch: 227.2517°
orbit number at epoch: 12611

The dashed part of the orbit path shows where the satellite is in the earth's shadow,  

DLR